SCP
0 0 0 0 0 0 0 0 0 0 0 0 0 0 0 0 0 0 0 1 1 1 1 1 1 0 0 0 0 0 0 0 0 0 0 0 0 0 0 0 0 0 0 0 0 0 0 0 0
0 0 0 0 0 0 0 0 0 0 0 0 0 0 0 0 0 0 0 1 1 1 1 1 1 1 0 0 0 0 0 0 0 0 0 0 0 0 0 0 0 0 0 0 0 0 0 0 0
0 0 0 0 0 0 0 0 0 0 0 0 0 0 0 0 0 0 1 1 1 1 1 1 1 1 1 0 0 0 0 0 0 0 0 0 0 0 0 0 0 0 0 0 0 0 0 0 0
0 0 0 0 0 0 0 0 0 0 0 0 0 0 1 0 0 0 1 1 1 1 1 1 1 1 1 0 0 0 0 0 0 0 0 0 0 0 0 0 0 0 0 0 0 0 0 0 0
0 0 0 0 0 0 0 0 0 0 0 0 0 1 1 1 0 0 0 1 1 1 1 1 1 1 1 1 1 0 0 0 0 0 0 0 0 0 0 0 0 0 0 0 0 0 0 0 0
0 0 0 0 0 0 0 0 0 0 0 0 0 1 1 1 1 0 1 1 1 1 1 1 1 1 1 1 1 1 1 0 0 0 0 0 0 0 0 0 0 0 0 0 0 0 0 0 0
0 0 0 0 0 0 0 0 0 0 0 0 0 1 1 1 1 1 1 1 1 1 1 1 1 1 1 1 1 1 1 1 0 0 1 1 0 0 0 0 0 0 0 0 0 0 0 0 0
0 0 0 0 0 0 0 0 0 0 0 0 1 1 1 1 1 1 1 1 1 1 1 1 1 1 1 1 1 1 1 1 1 1 1 1 0 0 0 0 0 0 0 0 0 0 0 0 0
0 0 0 0 0 0 0 0 0 0 0 1 1 1 1 1 1 1 1 1 1 1 1 1 1 1 1 1 1 1 1 1 1 1 1 1 1 0 0 1 1 1 1 0 0 0 0 0 0
0 0 0 0 0 0 0 0 0 0 1 1 1 1 1 1 1 1 1 1 2 2 2 1 1 1 1 1 1 1 1 1 1 1 1 1 1 1 1 1 1 1 1 1 1 1 0 0 0
0 0 0 0 0 0 0 0 0 0 1 1 1 1 1 1 1 1 1 2 2 2 2 2 2 1 1 1 1 1 1 1 1 1 1 1 1 1 1 1 1 1 1 1 1 1 1 0 0
0 0 0 0 0 0 0 0 0 0 1 1 1 1 1 1 1 1 2 2 2 2 2 2 2 2 2 1 1 1 1 1 1 1 1 1 1 1 1 1 1 1 1 1 1 1 1 0 0
0 0 0 0 0 0 0 0 0 0 1 1 1 1 1 1 1 2 2 2 2 2 2 2 2 2 2 2 2 1 1 1 1 1 1 1 1 1 1 1 1 1 1 1 1 1 0 0 0
0 0 0 0 0 0 0 0 0 0 1 1 1 1 1 1 1 2 2 2 2 2 2 2 2 2 2 2 2 1 1 1 1 1 1 1 1 1 1 1 1 1 1 1 1 1 0 0 0
0 0 0 0 0 0 0 0 0 0 1 1 1 1 1 1 1 1 2 2 2 2 2 2 2 2 2 2 2 2 1 1 1 1 1 1 1 1 1 1 1 1 1 1 1 1 0 0 0
0 0 0 0 0 0 0 0 0 1 1 1 1 1 1 1 1 1 2 2 2 2 3 2 2 2 2 2 2 2 2 2 1 1 1 1 1 1 1 1 1 1 1 1 1 1 0 0 0
0 0 0 0 0 0 0 0 0 1 1 1 1 1 1 1 1 1 2 2 3 3 3 3 2 2 2 2 2 2 2 2 2 1 1 1 1 1 1 1 1 1 1 1 1 1 0 0 0
0 0 0 0 0 0 0 0 0 1 1 1 1 1 1 1 1 1 2 2 3 3 4 3 3 3 2 2 2 2 2 2 1 1 1 1 1 1 1 1 1 1 1 1 1 0 0 0 0
0 0 0 0 0 0 0 0 0 0 1 1 1 1 1 1 1 2 2 2 3 4 4 3 3 3 2 2 2 2 2 2 1 1 1 1 1 1 1 1 1 1 1 1 0 0 0 0 0
0 0 0 0 0 0 0 0 0 0 0 0 1 1 1 1 1 2 2 2 3 3 4 3 3 3 2 2 2 2 2 1 1 1 1 1 1 1 1 1 1 1 1 0 0 0 0 0 0
0 0 0 0 0 0 0 0 0 0 0 1 1 1 1 1 1 2 2 2 2 3 3 3 3 3 2 2 2 2 1 1 1 1 1 1 1 1 1 1 1 1 1 0 0 0 0 0 0
0 0 0 0 0 0 0 0 0 0 0 1 1 1 1 1 1 2 2 2 2 2 2 2 2 2 2 2 2 1 1 1 1 1 1 1 1 1 1 1 1 0 0 0 0 0 0 0 0
0 0 0 0 0 0 0 0 0 0 0 1 1 1 1 1 1 1 2 2 2 2 2 2 2 2 2 2 2 1 1 1 1 1 1 1 1 1 1 1 0 0 0 0 0 0 0 0 0
0 0 0 0 0 0 0 0 0 0 0 0 0 1 1 1 1 1 1 2 2 1 2 2 2 2 2 2 2 2 1 1 1 1 1 1 1 1 1 1 0 0 0 0 0 0 0 0 0
0 0 0 0 0 0 0 0 0 0 0 0 0 0 0 0 1 1 1 1 2 2 2 2 2 2 2 2 1 1 1 1 1 1 1 1 1 1 1 0 0 0 0 0 0 0 0 0 0
0 0 0 0 0 0 0 0 0 0 0 0 0 0 0 0 1 1 1 1 1 1 1 1 2 2 1 1 1 1 1 1 1 1 1 1 1 1 0 0 0 0 0 0 0 0 0 0 0
0 0 0 0 0 0 0 0 0 0 0 0 0 0 0 1 1 1 1 1 1 1 1 1 1 1 1 1 1 1 1 1 1 1 1 1 1 0 0 0 0 0 0 0 0 0 0 0 0
0 0 0 0 0 0 0 0 0 0 0 0 0 0 1 1 1 1 1 1 1 1 1 1 1 1 1 1 1 1 1 1 1 1 1 1 1 0 0 0 0 0 0 0 0 0 0 0 0
0 0 0 0 0 0 0 0 0 0 0 0 0 0 1 1 1 0 0 1 1 1 1 1 1 1 1 1 1 1 1 1 1 1 1 0 0 0 0 0 0 0 0 0 0 0 0 0 0
0 0 0 0 0 0 0 0 0 0 0 0 0 0 0 1 1 0 0 0 1 1 1 1 1 1 1 1 1 1 1 1 1 1 0 0 0 0 0 0 0 0 0 0 0 0 0 0 0
Wind_Speed
8 11 10 8 8 8 9 5 2 6 8 9 8 7 11 13 10 9 9 13 18 19 17 16 14 12 11 10 9 9 9 9 9 8 8 7 7 6 6 5 4 4 3 3 3 2 2 1 2
10 12 10 8 8 8 5 1 4 7 8 8 6 7 10 13 12 11 11 14 18 18 16 15 15 12 11 10 9 9 9 9 9 8 7 7 6 6 6 5 4 3 3 2 2 1 0 0 1
12 15 8 8 10 9 4 5 6 6 7 5 5 7 9 9 9 9 12 15 16 17 16 16 15 13 11 10 9 9 9 8 8 8 7 6 6 6 5 5 4 4 3 2 2 2 1 1 2
9 9 8 10 11 7 1 3 3 5 5 4 4 8 9 8 7 11 13 14 15 16 17 16 16 13 12 10 9 9 8 8 8 7 7 6 6 5 5 5 5 4 4 3 3 3 2 3 3
10 8 11 12 11 4 1 4 3 4 5 4 5 9 8 8 11 13 12 13 14 16 16 16 15 13 12 10 9 8 8 7 7 7 6 6 6 6 5 5 5 5 5 4 4 4 4 4 4
8 9 11 10 8 2 1 2 0 3 3 3 3 7 8 9 10 11 11 11 14 15 16 14 15 14 12 11 9 8 8 7 7 7 6 6 6 6 6 6 6 6 5 5 5 5 5 5 6
11 11 12 12 7 2 2 2 2 3 3 5 3 5 9 10 9 9 10 10 12 14 15 13 12 12 12 11 10 9 8 7 7 6 6 6 6 7 7 7 6 6 6 6 6 6 7 7 7
11 11 15 11 6 2 2 3 3 3 3 3 3 4 9 10 9 9 9 10 11 12 12 11 11 11 10 10 11 10 9 9 8 7 7 8 8 8 9 9 8 8 8 8 8 8 8 9 9
14 12 10 8 6 1 2 2 4 3 2 3 5 7 13 13 11 9 9 8 9 10 9 9 10 9 9 9 11 11 11 10 9 8 9 8 6 7 8 10 10 10 10 10 10 10 10 10 11
10 9 8 7 6 4 4 2 1 2 2 4 6 11 14 12 10 10 9 8 9 9 8 7 8 8 7 6 8 7 7 7 7 5 6 6 5 5 5 6 10 10 11 11 11 11 10 9 6
10 9 7 7 5 4 4 3 2 1 1 3 5 9 11 11 9 9 8 7 7 8 6 6 6 6 5 3 5 3 3 4 5 5 5 4 4 3 2 2 4 5 7 6 6 7 5 5 4
9 6 7 7 4 3 4 3 4 2 2 4 6 8 9 9 9 8 8 7 7 7 6 5 5 4 3 3 2 2 2 2 2 3 4 3 2 2 1 1 2 2 2 2 2 2 3 4 5
9 6 7 5 3 3 2 2 3 1 3 5 5 6 7 6 6 6 6 6 6 5 5 5 4 4 3 2 1 2 2 2 3 3 3 2 2 2 1 1 1 2 1 2 2 2 3 4 4
7 6 7 6 5 4 3 3 3 2 3 5 5 5 5 6 6 6 5 5 5 5 4 4 4 4 3 2 1 1 1 1 1 2 2 2 2 1 1 1 1 2 1 1 2 3 3 3 3
8 9 9 8 7 5 4 4 3 3 3 4 5 6 5 5 5 5 5 5 5 5 4 3 4 4 3 2 2 1 1 1 1 1 1 2 2 1 1 2 2 2 2 2 2 3 2 3 3
13 12 10 8 8 7 7 5 1 2 3 4 4 4 5 4 4 4 5 5 5 4 4 3 2 4 3 2 1 1 1 1 1 1 1 1 1 1 1 2 2 1 1 1 2 2 2 3 3
11 9 8 7 6 5 5 4 3 4 4 3 3 3 3 4 4 4 4 6 5 5 4 4 2 2 3 3 2 1 1 1 1 1 1 1 0 1 1 1 1 2 1 1 2 1 2 3 3
9 9 7 7 4 5 4 5 4 3 3 3 3 4 3 3 3 4 5 5 5 5 4 3 2 1 1 2 1 1 1 1 1 1 1 0 1 1 1 1 1 2 1 1 2 3 3 3 3
12 11 9 8 5 6 5 6 5 3 3 3 3 4 3 3 3 4 5 5 6 5 4 3 2 2 1 1 1 1 1 0 1 1 1 0 1 1 1 1 1 2 1 1 2 3 4 3 2
11 10 10 7 5 6 7 8 6 5 4 4 4 3 3 3 4 5 5 5 5 5 4 3 2 2 1 1 1 1 1 1 1 1 1 0 0 1 1 0 1 1 1 1 2 2 2 3 2
9 9 10 9 9 10 10 8 5 4 3 5 4 3 3 3 4 5 5 4 4 4 4 3 3 2 1 0 0 0 0 0 1 1 1 0 1 1 1 1 1 1 2 1 2 2 2 3 3
8 8 10 10 10 9 9 8 4 3 2 4 4 4 2 3 4 4 6 5 4 3 4 3 3 2 1 1 0 1 1 1 0 0 0 0 1 0 0 0 1 1 2 2 3 2 2 3 3
10 11 12 13 11 12 9 8 4 3 2 3 3 3 3 3 3 4 4 5 4 3 3 4 3 2 2 1 1 1 1 1 1 0 0 1 1 1 0 0 0 1 2 2 3 3 3 3 3
8 11 13 11 8 10 7 7 4 2 2 2 3 4 3 2 4 4 4 4 4 3 3 4 4 3 2 2 1 1 1 1 1 1 1 1 1 1 1 1 1 1 2 2 2 3 4 3 3
8 8 7 6 5 6 6 4 2 3 2 2 4 4 4 3 4 4 3 4 4 3 1 2 3 2 2 2 1 1 1 1 1 1 1 2 1 1 1 1 1 2 2 2 2 2 3 4 3
7 7 7 7 9 9 7 3 2 3 3 4 5 4 5 4 4 3 3 3 3 3 1 1 1 1 1 1 1 0 0 0 0 1 1 2 2 2 1 1 1 2 2 3 2 2 3 3 3
7 7 8 7 9 9 5 2 1 3 5 6 5 4 3 4 3 3 3 3 3 3 2 1 1 1 0 0 1 1 1 0 1 1 1 1 2 2 1 2 2 2 2 3 3 3 4 3 3
7 8 6 6 6 6 7 5 4 4 6 5 4 3 4 4 4 3 3 3 2 1 2 2 1 0 1 2 1 0 0 0 0 1 1 2 2 3 2 2 2 2 3 3 3 3 3 4 4
8 7 7 7 7 6 7 4 3 4 4 3 3 4 4 4 4 2 2 2 2 2 2 2 1 1 1 1 1 0 0 0 1 1 1 1 2 2 2 2 3 3 3 3 3 3 3 4 4
7 6 6 6 8 8 7 4 2 4 4 5 6 6 5 3 2 2 2 2 1 1 1 0 1 1 0 1 1 1 1 0 1 1 1 2 2 2 2 2 3 3 3 3 3 4 4 4 4
Wind_Direction
239 243 238 247 242 243 253 254 60 63 67 68 52 51 59 46 53 86 112 116 115 121 127 130 129 130 132 133 134 139 144 148 149 150 152 151 148 145 141 140 141 139 135 129 121 110 94 74 57
248 246 242 246 251 251 249 232 74 67 68 74 74 68 68 62 63 99 115 116 121 125 133 132 133 133 135 135 135 138 145 151 154 156 156 156 155 155 156 157 160 163 161 163 165 162 136 39 351
258 254 254 246 244 260 302 27 67 76 76 72 71 60 58 67 71 100 117 127 127 130 130 129 137 136 137 137 137 139 144 150 156 159 162 163 164 166 168 171 177 184 191 199 206 224 237 255 274
248 234 236 249 256 252 303 34 41 100 90 77 88 79 72 58 83 110 128 136 132 130 128 135 139 139 139 140 141 141 145 152 156 160 163 167 171 174 181 186 192 201 209 217 226 235 246 255 266
240 248 241 249 250 252 289 72 17 57 70 62 70 91 91 81 98 118 137 138 132 128 130 138 142 142 143 144 145 147 149 153 157 164 168 171 175 183 194 202 206 213 221 224 229 236 243 252 261
238 240 250 259 252 217 125 76 349 81 78 81 95 106 98 110 114 130 135 136 131 129 130 137 145 147 149 151 152 153 154 158 164 173 176 181 187 195 202 208 214 220 225 226 231 241 245 249 252
251 264 266 264 265 245 126 105 29 49 49 30 3 101 117 120 123 132 131 132 129 129 132 143 151 155 157 160 161 159 160 167 175 180 184 192 200 206 210 215 219 221 224 230 234 240 245 249 251
253 272 275 271 268 269 89 94 80 46 46 36 358 88 120 124 136 136 136 133 131 131 136 147 154 158 165 168 172 169 171 181 187 191 198 206 213 219 220 218 218 224 230 235 240 246 249 250 251
251 263 278 291 289 348 58 78 90 99 88 71 60 75 116 135 142 143 140 138 136 135 139 150 155 160 171 172 169 175 182 188 193 201 210 214 220 221 217 221 212 218 227 234 238 243 248 253 250
242 258 274 305 343 23 11 12 5 152 116 116 108 109 126 138 144 152 152 154 148 145 150 157 158 161 172 172 156 176 185 187 199 203 208 216 228 233 229 205 211 217 225 233 237 242 247 247 252
240 258 293 308 346 7 344 336 319 297 42 83 105 120 132 144 152 159 160 159 153 148 145 146 147 151 159 153 153 170 184 178 197 206 213 222 230 238 231 203 205 220 228 233 237 238 240 243 244
248 261 284 296 335 336 314 329 341 14 56 80 116 135 147 157 159 164 160 157 148 143 141 133 135 136 141 130 147 162 177 170 189 193 211 219 220 238 238 226 219 222 228 223 243 244 247 254 262
254 250 248 267 285 294 315 324 299 14 90 99 115 135 145 146 146 149 152 147 139 139 139 136 132 123 122 124 161 161 183 181 183 170 188 214 221 232 244 240 236 255 249 228 239 254 258 260 269
269 274 262 262 255 250 260 251 241 227 136 129 136 146 157 155 152 153 155 152 146 138 136 132 135 132 136 146 167 177 202 188 195 156 179 204 233 223 231 249 239 248 257 270 253 254 256 256 259
267 260 254 244 242 238 256 253 222 185 168 156 148 149 150 150 154 159 155 151 147 137 135 139 146 146 152 165 187 192 208 183 191 160 187 203 232 237 239 249 240 240 237 240 252 269 273 261 258
254 248 250 241 221 224 237 275 260 189 178 151 140 142 141 140 137 139 139 135 137 138 136 135 162 146 148 157 182 207 211 168 164 147 181 187 247 258 244 249 258 262 259 248 249 245 264 269 267
261 259 260 263 242 255 254 257 243 196 159 150 147 141 139 133 143 142 136 140 140 134 131 134 136 145 165 171 182 197 157 145 140 117 95 59 311 288 273 261 280 278 266 265 278 269 260 266 265
288 287 281 279 273 274 282 274 243 202 173 168 156 136 134 141 144 141 134 130 130 126 122 128 128 119 154 178 174 193 199 173 140 106 87 78 304 301 286 271 282 289 283 268 275 276 258 255 257
283 291 286 286 302 297 286 277 260 226 201 176 165 156 154 150 147 131 128 135 134 128 131 137 152 133 138 175 196 226 202 162 142 136 119 146 274 293 274 292 289 281 273 278 293 287 285 272 261
283 292 291 296 299 287 272 258 238 218 195 182 177 159 154 156 133 130 129 133 136 138 141 148 148 140 181 176 185 213 204 212 124 61 87 69 330 290 270 265 258 280 278 276 280 284 290 295 297
294 295 304 314 312 294 279 262 234 215 182 151 141 135 148 163 150 150 141 134 141 145 150 156 157 152 173 132 145 55 150 254 86 76 90 51 346 343 328 314 307 288 277 272 274 277 278 289 295
304 323 313 301 297 290 291 287 265 225 187 140 132 125 139 143 144 139 141 143 140 147 151 143 132 129 177 157 191 217 205 251 253 186 124 276 238 241 275 310 312 303 309 303 296 315 288 282 291
319 321 307 296 289 284 280 282 274 252 208 137 122 110 101 113 116 108 122 134 133 148 155 142 129 142 164 170 204 257 292 318 9 345 145 249 247 237 218 232 313 283 288 297 303 310 294 284 279
327 318 310 299 285 277 289 289 301 335 315 134 140 120 104 112 115 103 111 121 124 131 141 136 147 156 171 181 183 232 270 283 289 290 258 256 254 241 241 272 275 282 291 296 297 293 285 281 282
336 325 317 309 292 295 321 314 329 33 7 108 137 121 124 111 105 116 121 125 113 107 107 133 137 155 172 176 180 207 253 270 264 273 271 284 293 283 289 314 301 293 281 274 273 282 288 281 278
310 302 303 314 312 310 307 317 351 27 43 74 87 93 101 92 82 91 96 112 123 110 82 95 121 135 160 151 169 159 167 249 290 326 309 303 305 311 313 305 300 298 304 307 311 289 280 281 280
301 298 309 299 288 294 305 316 355 52 47 57 68 68 81 83 66 58 81 89 95 109 106 74 70 80 27 239 237 192 188 293 305 306 301 324 332 306 331 315 305 302 300 300 301 296 300 296 285
308 307 307 296 303 306 310 338 350 10 15 26 38 48 48 47 55 52 59 54 66 90 139 127 126 211 228 218 232 246 123 305 305 310 334 332 320 320 313 308 306 302 298 292 293 294 293 292 291
321 322 328 319 316 309 304 325 11 356 4 5 25 46 48 36 20 28 52 50 44 34 75 133 172 213 226 223 189 193 227 176 322 311 315 321 322 315 312 316 309 303 303 304 297 289 288 294 299
311 328 335 322 317 305 304 307 339 10 8 15 32 32 34 35 9 4 28 32 35 13 40 226 234 240 219 178 175 182 235 282 299 315 314 312 304 306 310 308 305 302 310 314 308 302 304 305 302